Tracking 29892 objects as of 21-Nov-2024
HD Live streaming from Space Station
objects crossing your sky now

STARLINK-6181

Track STARLINK-6181 now!
10-day predictions
STARLINK-6181 is classified as:


NORAD ID: 56888
Int'l Code: 2023-083N
Perigee: 565.1 km
Apogee: 567.3 km
Inclination: 43.0 °
Period: 95.8 minutes
Semi major axis: 6937 km
RCS: Unknown
Launch date: June 12, 2023
Source: United States (US)
Launch site: AIR FORCE EASTERN TEST RANGE (AFETR)
Your satellite tracking list
Your tracking list is empty




NASA's NSSDC Master Catalog

Two Line Element Set (TLE):
1 56888U 23083N   24325.91299666  .00003291  00000-0  25851-3 0  9994
2 56888  43.0022 136.0094 0001645 266.1760  93.8895 15.02542914 79602
Source of the keplerian elements: AFSPC